Location: Cz?stochówka
(50.8142°N, 19.0915°E)
Time: 10:52:24
(UTC+00:00)

Landsat 7 - Pass Details

Date: 13 January 2026
Orbit: 680 x 682 km, 97.9° (Epoch: 11 February)

Event Time Altitude Azimuth Distance (km) Brightness Sun altitude
Rises 05:21:58 0° 13° (NNE) 3,056 7.1 -12.0°
Reaches altitude 10° 05:24:13 10° 13° (NNE) 2,135 6.3 -11.7°
Maximum altitude 05:28:54 88° 283° (WNW) 689 3.7 -11.0°
Drops below altitude 10° 05:33:33 10° 197° (SSW) 2,117 6.4 -10.3°
Sets 05:35:46 0° 197° (SSW) 3,028 7.2 -9.9°
